Location: Little Arabia
(41.4620°N, 81.7687°W)
Time: 20:02:01
(UTC+00:00)

Cosmos 1939 Rocket - Pass Details

Date: 29 October 2020
Orbit: 533 x 584 km, 97.4° (Epoch: 03 December)

Event Time Altitude Azimuth Distance (km) Brightness Sun altitude
Rises 23:16:48 0° 155° (SSE) 2,729 6.2 -10.2°
Reaches altitude 10° 23:18:58 10° 150° (SSE) 1,830 5.3 -10.6°
Maximum altitude 23:22:48 52° 74° (ENE) 690 2.9 -11.3°
Drops below altitude 10° 23:26:37 10° 358° (N) 1,817 5.4 -12.1°
Sets 23:28:46 0° 354° (N) 2,707 6.3 -12.5°
